Flag for Brazil Weather past 2 weeks in Parnaíba, Piauí, Brazil

Now
81 °F

Sunny.


Feels Like: 85 °F
Forecast: 80 / 93 °F
Wind: 6 mph from Southwest

Location: Teresina Aeroporto

Current Time: Jan 26, 2015 at 8:32:50 AM

Latest Report: Jan 26, 2015 at 8:00 AM


Visibility: 10 mi

Pressure: 29.92 "Hg

Humidity: 79%

Dew point: 73 °F

Location of ParnaíbaLocation

Historic Weather in Parnaíba — Graph

°F

Parnaíba temperature yesterday

Maximum temperature yesterday: 84 °F (at 1:00 PM)
Minimum temperature yesterday: 75 °F (at 2:00 AM)
Average temperature yesterday: 80 °F

Past Weeks' High & Low Weather Summary

 TemperatureHumidityPressure
High99 °F (Jan 16, 5:00 PM)100% (Jan 22, 2:00 AM)29.95 "Hg (Jan 22, 2:00 AM)
Low72 °F (Jan 22, 2:00 AM)33% (Jan 16, 5:00 PM)29.74 "Hg (Jan 13, 4:00 PM)
Average83 °F70%29.85 "Hg
* Reported Jan 11 7:00 AM — Jan 26 7:00 AM, Parnaíba, Weather by CustomWeather, © 2014

Note: Actual official high and low records may vary slightly from our data, if they occured in-between our weather recording intervals... More about our weather records

Advertising

Parnaíba weather history for previous 24 hours

 ConditionsComfort  
Time TempWeatherWind HumidityBarometerVisibility
7:00 AM
Jan 26
79 °FPartly sunny.6 mph84%29.92 "HgN/A
6:00 AM77 °FPartly sunny.6 mph94%29.89 "HgN/A
5:00 AM77 °FPassing clouds.2 mph89%29.89 "HgN/A
4:00 AM77 °FPassing clouds.3 mph94%29.89 "HgN/A
3:00 AM77 °FPassing clouds.No wind94%29.89 "HgN/A
2:00 AM77 °FPassing clouds.5 mph94%29.89 "HgN/A
1:00 AM77 °FPassing clouds.5 mph94%29.89 "HgN/A
12:00 AM79 °FClear.No wind89%29.89 "Hg10 mi
11:00 PM
Jan 25
79 °FClear.3 mph89%29.89 "Hg10 mi
10:00 PM79 °FClear.6 mph84%29.86 "Hg10 mi
9:00 PM81 °FClear.6 mph79%29.86 "Hg10 mi
8:00 PM82 °FClear.10 mph74%29.83 "Hg10 mi
7:00 PM82 °FClear.5 mph70%29.83 "Hg10 mi
6:00 PM84 °FPartly sunny.3 mph66%29.80 "HgN/A
5:00 PM84 °FPartly sunny.5 mph66%29.80 "HgN/A
4:00 PM84 °FBroken clouds.5 mph66%29.80 "HgN/A
3:00 PM84 °FBroken clouds.5 mph66%29.83 "HgN/A
2:00 PM84 °FBroken clouds.5 mph66%29.83 "HgN/A
1:00 PM84 °FBroken clouds.6 mph70%29.86 "HgN/A
12:00 PM82 °FPartly sunny.5 mph74%29.89 "HgN/A
11:00 AM82 °FPartly sunny.5 mph70%29.92 "HgN/A
10:00 AM82 °FScattered clouds.5 mph74%29.92 "HgN/A
9:00 AM79 °FScattered clouds.6 mph84%29.92 "HgN/A
8:00 AM77 °FPassing clouds.5 mph94%29.92 "HgN/A
Weather by CustomWeather, © 2014

See weather overviewHow to use our weather pages